Weather History for KCKC - May, 2014

Change the Weather History Date:

Friday, May 2, 2014

  Actual Average Record
Temperature  
Mean Temperature 42 °F -  
Max Temperature 50 °F 52 °F 71 °F (1999)
Min Temperature 33 °F 32 °F 19 °F (2003)
Degree Days  
Heating Degree Days 24    
Moisture  
Dew Point 31 °F    
Average Humidity 74    
Maximum Humidity 93    
Minimum Humidity 43    
Precipitation  
Precipitation 0.11 in - - ()
Sea Level Pressure  
Sea Level Pressure 29.61 in    
Wind  
Wind Speed 5 mph (West)    
Max Wind Speed 10 mph    
Max Gust Speed -    
Visibility 10 miles    
Events Rain    
Averages and records for this station are not official NWS values.
T = Trace of Precipitation, MM = Missing Value Source: NWS Daily Summary

Daily Weather History Graph

Daily Weather History Graph

Search for Another Location

Airport or City:

Trip Planner

Search our weather history database for the weather conditions in past years. The results will help you decide how hot, cold, wet, or windy it might be!

Date:

Astronomy

May. 02, 2014 Rise Set
Actual Time 5:42 AM CDT 8:15 PM CDT
Civil Twilight 5:07 AM CDT 8:50 PM CDT
Nautical Twilight 4:23 AM CDT 9:34 PM CDT
Astronomical Twilight 3:32 AM CDT 10:26 PM CDT
Moon 8:14 AM CDT (5/2) 11:42 PM CDT (5/2)
Length of Visible Light 15h 43m
Length of Day
14h 33m
Waxing Crescent, 12% of the Moon is Illuminated
May 2
Waxing Crescent
May 6
First Quarter
May 14
Full
May 21
Last Quarter
May 28
New

Hourly Weather History & Observations

Time (CDT) Temp. Windchill Dew Point Humidity Pressure Visibility Wind Dir Wind Speed Gust Speed Precip Events Conditions
12:13 AM 33.8 °F 27.0 °F 30.2 °F 87% 29.68 in 10.0 mi NW 8.1 mph - N/A   Overcast
12:33 AM 33.8 °F 27.7 °F 30.2 °F 87% 29.68 in 7.0 mi NW 6.9 mph - N/A   Overcast
12:54 AM 33.8 °F 27.7 °F 30.2 °F 87% 29.68 in 10.0 mi NW 6.9 mph - N/A   Light Drizzle
1:13 AM 33.8 °F 28.6 °F 30.2 °F 87% 29.67 in 10.0 mi NW 5.8 mph - N/A   Overcast
1:34 AM 33.8 °F 28.6 °F 30.2 °F 87% 29.67 in 10.0 mi NW 5.8 mph - N/A   Overcast
1:54 AM 33.8 °F 28.6 °F 30.2 °F 87% 29.66 in 10.0 mi NW 5.8 mph - N/A   Overcast
2:13 AM 33.8 °F 28.6 °F 30.2 °F 87% 29.66 in 10.0 mi NW 5.8 mph - N/A   Overcast
2:34 AM 33.8 °F 27.7 °F 30.2 °F 87% 29.65 in 10.0 mi NW 6.9 mph - N/A   Overcast
2:54 AM 33.8 °F 29.6 °F 30.2 °F 87% 29.65 in 10.0 mi WNW 4.6 mph - N/A   Overcast
3:14 AM 33.8 °F 29.6 °F 30.2 °F 87% 29.65 in 10.0 mi WNW 4.6 mph - N/A   Overcast
3:33 AM 33.8 °F 29.6 °F 30.2 °F 87% 29.64 in 10.0 mi WNW 4.6 mph - N/A   Overcast
3:53 AM 33.8 °F 30.8 °F 30.2 °F 87% 29.65 in 10.0 mi West 3.5 mph - N/A   Overcast
4:14 AM 33.8 °F 30.8 °F 30.2 °F 87% 29.64 in 10.0 mi WNW 3.5 mph - N/A   Overcast
4:33 AM 33.8 °F 30.8 °F 30.2 °F 87% 29.64 in 10.0 mi West 3.5 mph - N/A   Overcast
4:53 AM 33.8 °F 29.6 °F 30.2 °F 87% 29.64 in 10.0 mi WNW 4.6 mph - N/A   Overcast
5:14 AM 33.8 °F 30.8 °F 30.2 °F 87% 29.63 in 10.0 mi WNW 3.5 mph - N/A   Overcast
5:33 AM 33.8 °F 29.6 °F 30.2 °F 87% 29.63 in 10.0 mi West 4.6 mph - N/A   Mostly Cloudy
5:53 AM 33.8 °F 29.6 °F 30.2 °F 87% 29.63 in 10.0 mi WNW 4.6 mph - N/A   Scattered Clouds
6:13 AM 33.8 °F 29.6 °F 30.2 °F 87% 29.62 in 10.0 mi WNW 4.6 mph - N/A   Clear
6:34 AM 33.8 °F 27.7 °F 30.2 °F 87% 29.62 in 10.0 mi WNW 6.9 mph - N/A   Clear
6:53 AM 33.8 °F 29.6 °F 30.2 °F 87% 29.62 in 10.0 mi WNW 4.6 mph - N/A   Clear
7:14 AM 33.8 °F 28.6 °F 30.2 °F 87% 29.63 in 10.0 mi WNW 5.8 mph - N/A   Scattered Clouds
7:33 AM 35.6 °F 29.9 °F 30.2 °F 81% 29.62 in 10.0 mi NW 6.9 mph - N/A   Mostly Cloudy
7:54 AM 37.4 °F 32.1 °F 30.2 °F 75% 29.62 in 10.0 mi NW 6.9 mph - N/A   Scattered Clouds
8:13 AM 39.2 °F 33.0 °F 30.2 °F 70% 29.61 in 10.0 mi WNW 9.2 mph - N/A   Clear
8:34 AM 39.2 °F 33.6 °F 30.2 °F 70% 29.61 in 10.0 mi WNW 8.1 mph - N/A   Scattered Clouds
8:53 AM 41.0 °F 36.4 °F 30.2 °F 65% 29.61 in 10.0 mi WNW 6.9 mph - N/A   Scattered Clouds
9:13 AM 41.0 °F 35.8 °F 30.2 °F 65% 29.62 in 10.0 mi West 8.1 mph - N/A   Mostly Cloudy
9:34 AM 42.8 °F 41.1 °F 30.2 °F 61% 29.62 in 10.0 mi WSW 3.5 mph - N/A   Scattered Clouds
9:53 AM 42.8 °F 38.0 °F 30.2 °F 61% 29.62 in 10.0 mi West 8.1 mph - N/A   Clear
10:13 AM 42.8 °F 38.0 °F 30.2 °F 61% 29.62 in 10.0 mi WNW 8.1 mph - N/A   Scattered Clouds
10:34 AM 42.8 °F 41.1 °F 30.2 °F 61% 29.62 in 10.0 mi WNW 3.5 mph - N/A   Clear
10:53 AM 44.6 °F 42.2 °F 30.2 °F 57% 29.62 in 10.0 mi West 4.6 mph - N/A   Clear
11:14 AM 46.4 °F 44.3 °F 28.4 °F 50% 29.62 in 10.0 mi West 4.6 mph - N/A   Scattered Clouds
11:33 AM 46.4 °F 45.2 °F 30.2 °F 53% 29.62 in 10.0 mi West 3.5 mph - N/A   Scattered Clouds
11:53 AM 44.6 °F 43.1 °F 30.2 °F 57% 29.62 in 10.0 mi North 3.5 mph - N/A   Mostly Cloudy
12:14 PM 44.6 °F - 28.4 °F 53% 29.61 in 10.0 mi Calm Calm - N/A   Scattered Clouds
12:33 PM 46.4 °F 43.5 °F 30.2 °F 53% 29.61 in 10.0 mi WNW 5.8 mph - N/A   Mostly Cloudy
12:53 PM 48.2 °F - 28.4 °F 46% 29.60 in 10.0 mi West 6.9 mph - N/A   Mostly Cloudy
1:14 PM 48.2 °F - 28.4 °F 46% 29.60 in 10.0 mi SW 3.5 mph - N/A   Scattered Clouds
1:33 PM 50.0 °F - 28.4 °F 43% 29.60 in 10.0 mi Calm Calm - N/A   Mostly Cloudy
1:53 PM 46.4 °F 42.4 °F 30.2 °F 53% 29.59 in 10.0 mi South 8.1 mph - N/A   Mostly Cloudy
2:14 PM 44.6 °F 39.2 °F 30.2 °F 57% 29.61 in 10.0 mi SW 10.4 mph - N/A   Mostly Cloudy
2:33 PM 42.8 °F 38.6 °F 33.8 °F 70% 29.61 in 10.0 mi SSW 6.9 mph - N/A Rain Rain
2:53 PM 42.8 °F - 33.8 °F 70% 29.60 in 10.0 mi Calm Calm - N/A   Light Drizzle
3:14 PM 42.8 °F 41.1 °F 33.8 °F 70% 29.60 in 10.0 mi South 3.5 mph - N/A   Scattered Clouds
3:33 PM 44.6 °F 40.7 °F 30.2 °F 57% 29.60 in 10.0 mi SSW 6.9 mph - N/A   Mostly Cloudy
3:53 PM 42.8 °F 38.6 °F 30.2 °F 61% 29.60 in 10.0 mi SSW 6.9 mph - N/A   Drizzle
4:14 PM 42.8 °F 39.3 °F 30.2 °F 61% 29.60 in 10.0 mi SSW 5.8 mph - N/A   Mostly Cloudy
4:33 PM 44.6 °F 42.2 °F 30.2 °F 57% 29.59 in 10.0 mi South 4.6 mph - N/A   Mostly Cloudy
4:53 PM 44.6 °F 41.4 °F 30.2 °F 57% 29.59 in 10.0 mi SSW 5.8 mph - N/A   Mostly Cloudy
5:13 PM 44.6 °F 41.4 °F 30.2 °F 57% 29.59 in 10.0 mi SSW 5.8 mph - N/A   Mostly Cloudy
5:34 PM 46.4 °F 43.5 °F 30.2 °F 53% 29.59 in 10.0 mi South 5.8 mph - N/A   Scattered Clouds
5:53 PM 46.4 °F 43.5 °F 30.2 °F 53% 29.59 in 10.0 mi SSW 5.8 mph - N/A   Scattered Clouds
6:13 PM 44.6 °F - 30.2 °F 57% 29.59 in 10.0 mi Calm Calm - N/A   Mostly Cloudy
6:34 PM 44.6 °F 40.7 °F 30.2 °F 57% 29.59 in 10.0 mi SSW 6.9 mph - N/A   Overcast
6:53 PM 42.8 °F 39.3 °F 33.8 °F 70% 29.59 in 10.0 mi SW 5.8 mph - N/A   Drizzle
7:13 PM 41.0 °F - 35.6 °F 81% 29.59 in 10.0 mi Calm Calm - N/A Rain Light Rain
7:34 PM 39.2 °F - 35.6 °F 87% 29.59 in 10.0 mi Calm Calm - N/A   Drizzle
7:53 PM 39.2 °F - 35.6 °F 87% 29.59 in 10.0 mi Calm Calm - N/A   Drizzle
8:13 PM 39.2 °F - 35.6 °F 87% 29.59 in 10.0 mi Calm Calm - N/A Rain Rain
8:34 PM 39.2 °F - 35.6 °F 87% 29.59 in 10.0 mi Calm Calm - 0.01 in   Drizzle
8:54 PM 39.2 °F - 35.6 °F 87% 29.58 in 10.0 mi Calm Calm - 0.01 in   Light Drizzle
9:13 PM 39.2 °F - 35.6 °F 87% 29.58 in 10.0 mi Calm Calm - N/A   Drizzle
9:34 PM 37.4 °F - 35.6 °F 93% 29.58 in 7.0 mi Calm Calm - N/A Rain Rain
9:53 PM 37.4 °F - 35.6 °F 93% 29.58 in 10.0 mi Calm Calm - 0.01 in   Drizzle
10:14 PM 37.4 °F - 35.6 °F 93% 29.58 in 10.0 mi Calm Calm - 0.01 in Rain Rain
10:33 PM 37.4 °F - 35.6 °F 93% 29.57 in 7.0 mi Calm Calm - 0.03 in Rain Light Rain
10:53 PM 37.4 °F - 35.6 °F 93% 29.57 in 7.0 mi Calm Calm - 0.04 in Rain Light Rain
11:14 PM 37.4 °F - 35.6 °F 93% 29.56 in 7.0 mi Calm Calm - 0.01 in Rain Rain
11:33 PM 37.4 °F - 35.6 °F 93% 29.56 in 7.0 mi Calm Calm - 0.03 in Rain Light Rain
11:54 PM 37.4 °F - 35.6 °F 93% 29.55 in 7.0 mi Calm Calm - 0.05 in Rain Light Rain